Date_Time,Julian_Date,Latitude,Longitude,Instrument_Depth,Water_Temperature
(yyyy-mm-dd hh:mn:ss UTC),(JD),(+ deg. North),(+ deg. East),(m),(deg. C)
1978-10-26 23:59:00 UTC,2443808.499306,27.6633,-85.5217,0157,16.1010
1978-10-27 00:59:00 UTC,2443808.540972,27.6633,-85.5217,0157,16.0660
1978-10-27 01:59:00 UTC,2443808.582639,27.6633,-85.5217,0157,16.0870
1978-10-27 02:59:00 UTC,2443808.624306,27.6633,-85.5217,0157,16.0150
1978-10-27 03:59:00 UTC,2443808.665972,27.6633,-85.5217,0157,15.9620
1978-10-27 04:59:00 UTC,2443808.707639,27.6633,-85.5217,0157,15.9780
1978-10-27 05:59:00 UTC,2443808.749306,27.6633,-85.5217,0157,15.9790
1978-10-27 06:59:00 UTC,2443808.790972,27.6633,-85.5217,0157,16.0050
1978-10-27 07:59:00 UTC,2443808.832639,27.6633,-85.5217,0157,15.9260
1978-10-27 08:59:00 UTC,2443808.874306,27.6633,-85.5217,0157,15.9340
1978-10-27 09:59:00 UTC,2443808.915972,27.6633,-85.5217,0157,16.0160
1978-10-27 10:59:00 UTC,2443808.957639,27.6633,-85.5217,0157,15.9110
1978-10-27 11:59:00 UTC,2443808.999306,27.6633,-85.5217,0157,15.7750
1978-10-27 12:59:00 UTC,2443809.040972,27.6633,-85.5217,0157,15.7390
1978-10-27 13:59:00 UTC,2443809.082639,27.6633,-85.5217,0157,15.7160
1978-10-27 14:59:00 UTC,2443809.124306,27.6633,-85.5217,0157,15.7140
1978-10-27 15:59:00 UTC,2443809.165972,27.6633,-85.5217,0157,15.7800
1978-10-27 16:59:00 UTC,2443809.207639,27.6633,-85.5217,0157,15.8100
1978-10-27 17:59:00 UTC,2443809.249306,27.6633,-85.5217,0157,15.8410
1978-10-27 18:59:00 UTC,2443809.290972,27.6633,-85.5217,0157,15.8920
1978-10-27 19:59:00 UTC,2443809.332639,27.6633,-85.5217,0157,15.8590
1978-10-27 20:59:00 UTC,2443809.374306,27.6633,-85.5217,0157,15.7990
1978-10-27 21:59:00 UTC,2443809.415972,27.6633,-85.5217,0157,15.8400
1978-10-27 22:59:00 UTC,2443809.457639,27.6633,-85.5217,0157,15.8930
1978-10-27 23:59:00 UTC,2443809.499306,27.6633,-85.5217,0157,15.8470
1978-10-28 00:59:00 UTC,2443809.540972,27.6633,-85.5217,0157,15.7950
1978-10-28 01:59:00 UTC,2443809.582639,27.6633,-85.5217,0157,15.7750
1978-10-28 02:59:00 UTC,2443809.624306,27.6633,-85.5217,0157,15.7350
1978-10-28 03:59:00 UTC,2443809.665972,27.6633,-85.5217,0157,15.8300
1978-10-28 04:59:00 UTC,2443809.707639,27.6633,-85.5217,0157,15.8770
1978-10-28 05:59:00 UTC,2443809.749306,27.6633,-85.5217,0157,15.8190
1978-10-28 06:59:00 UTC,2443809.790972,27.6633,-85.5217,0157,15.8660
1978-10-28 07:59:00 UTC,2443809.832639,27.6633,-85.5217,0157,15.7960
1978-10-28 08:59:00 UTC,2443809.874306,27.6633,-85.5217,0157,15.7110
1978-10-28 09:59:00 UTC,2443809.915972,27.6633,-85.5217,0157,15.7160
1978-10-28 10:59:00 UTC,2443809.957639,27.6633,-85.5217,0157,15.6520
1978-10-28 11:59:00 UTC,2443809.999306,27.6633,-85.5217,0157,15.5540
1978-10-28 12:59:00 UTC,2443810.040972,27.6633,-85.5217,0157,15.4870
1978-10-28 13:59:00 UTC,2443810.082639,27.6633,-85.5217,0157,15.4500
1978-10-28 14:59:00 UTC,2443810.124306,27.6633,-85.5217,0157,15.4420
1978-10-28 15:59:00 UTC,2443810.165972,27.6633,-85.5217,0157,15.4850
1978-10-28 16:59:00 UTC,2443810.207639,27.6633,-85.5217,0157,15.4860
1978-10-28 17:59:00 UTC,2443810.249306,27.6633,-85.5217,0157,15.5830
1978-10-28 18:59:00 UTC,2443810.290972,27.6633,-85.5217,0157,15.6690
1978-10-28 19:59:00 UTC,2443810.332639,27.6633,-85.5217,0157,15.6250
1978-10-28 20:59:00 UTC,2443810.374306,27.6633,-85.5217,0157,15.8160
1978-10-28 21:59:00 UTC,2443810.415972,27.6633,-85.5217,0157,15.9240
1978-10-28 22:59:00 UTC,2443810.457639,27.6633,-85.5217,0157,15.8680
1978-10-28 23:59:00 UTC,2443810.499306,27.6633,-85.5217,0157,15.8290
1978-10-29 00:59:00 UTC,2443810.540972,27.6633,-85.5217,0157,15.7850
1978-10-29 01:59:00 UTC,2443810.582639,27.6633,-85.5217,0157,15.9180
1978-10-29 02:59:00 UTC,2443810.624306,27.6633,-85.5217,0157,15.9650
1978-10-29 03:59:00 UTC,2443810.665972,27.6633,-85.5217,0157,15.9070
1978-10-29 04:59:00 UTC,2443810.707639,27.6633,-85.5217,0157,15.8690
1978-10-29 05:59:00 UTC,2443810.749306,27.6633,-85.5217,0157,15.8450
1978-10-29 06:59:00 UTC,2443810.790972,27.6633,-85.5217,0157,15.8070
1978-10-29 07:59:00 UTC,2443810.832639,27.6633,-85.5217,0157,15.6760
1978-10-29 08:59:00 UTC,2443810.874306,27.6633,-85.5217,0157,15.6120
1978-10-29 09:59:00 UTC,2443810.915972,27.6633,-85.5217,0157,15.6030
1978-10-29 10:59:00 UTC,2443810.957639,27.6633,-85.5217,0157,15.5810
1978-10-29 11:59:00 UTC,2443810.999306,27.6633,-85.5217,0157,15.4930
1978-10-29 12:59:00 UTC,2443811.040972,27.6633,-85.5217,0157,15.4630
1978-10-29 13:59:00 UTC,2443811.082639,27.6633,-85.5217,0157,15.5720
1978-10-29 14:59:00 UTC,2443811.124306,27.6633,-85.5217,0157,15.6030
1978-10-29 15:59:00 UTC,2443811.165972,27.6633,-85.5217,0157,15.5950
1978-10-29 16:59:00 UTC,2443811.207639,27.6633,-85.5217,0157,15.5800
1978-10-29 17:59:00 UTC,2443811.249306,27.6633,-85.5217,0157,15.5190
1978-10-29 18:59:00 UTC,2443811.290972,27.6633,-85.5217,0157,15.5690
1978-10-29 19:59:00 UTC,2443811.332639,27.6633,-85.5217,0157,15.6860
1978-10-29 20:59:00 UTC,2443811.374306,27.6633,-85.5217,0157,15.6630
1978-10-29 21:59:00 UTC,2443811.415972,27.6633,-85.5217,0157,15.5910
1978-10-29 22:59:00 UTC,2443811.457639,27.6633,-85.5217,0157,15.5930
1978-10-29 23:59:00 UTC,2443811.499306,27.6633,-85.5217,0157,15.6560
1978-10-30 00:59:00 UTC,2443811.540972,27.6633,-85.5217,0157,15.6890
1978-10-30 01:59:00 UTC,2443811.582639,27.6633,-85.5217,0157,15.5910
1978-10-30 02:59:00 UTC,2443811.624306,27.6633,-85.5217,0157,15.4350
1978-10-30 03:59:00 UTC,2443811.665972,27.6633,-85.5217,0157,15.3340
1978-10-30 04:59:00 UTC,2443811.707639,27.6633,-85.5217,0157,15.2720
1978-10-30 05:59:00 UTC,2443811.749306,27.6633,-85.5217,0157,15.3420
1978-10-30 06:59:00 UTC,2443811.790972,27.6633,-85.5217,0157,15.3750
1978-10-30 07:59:00 UTC,2443811.832639,27.6633,-85.5217,0157,15.2850
1978-10-30 08:59:00 UTC,2443811.874306,27.6633,-85.5217,0157,15.2180
1978-10-30 09:59:00 UTC,2443811.915972,27.6633,-85.5217,0157,15.1780
1978-10-30 10:59:00 UTC,2443811.957639,27.6633,-85.5217,0157,15.1780
1978-10-30 11:59:00 UTC,2443811.999306,27.6633,-85.5217,0157,15.1900
1978-10-30 12:59:00 UTC,2443812.040972,27.6633,-85.5217,0157,15.2080
1978-10-30 13:59:00 UTC,2443812.082639,27.6633,-85.5217,0157,15.2480
1978-10-30 14:59:00 UTC,2443812.124306,27.6633,-85.5217,0157,15.2980
1978-10-30 15:59:00 UTC,2443812.165972,27.6633,-85.5217,0157,15.3660
1978-10-30 16:59:00 UTC,2443812.207639,27.6633,-85.5217,0157,15.3640
1978-10-30 17:59:00 UTC,2443812.249306,27.6633,-85.5217,0157,15.3840
1978-10-30 18:59:00 UTC,2443812.290972,27.6633,-85.5217,0157,15.4070
1978-10-30 19:59:00 UTC,2443812.332639,27.6633,-85.5217,0157,15.3060
1978-10-30 20:59:00 UTC,2443812.374306,27.6633,-85.5217,0157,15.2460
1978-10-30 21:59:00 UTC,2443812.415972,27.6633,-85.5217,0157,15.2630
1978-10-30 22:59:00 UTC,2443812.457639,27.6633,-85.5217,0157,15.2920
1978-10-30 23:59:00 UTC,2443812.499306,27.6633,-85.5217,0157,15.3070
1978-10-31 00:59:00 UTC,2443812.540972,27.6633,-85.5217,0157,15.2370
1978-10-31 01:59:00 UTC,2443812.582639,27.6633,-85.5217,0157,15.1870
1978-10-31 02:59:00 UTC,2443812.624306,27.6633,-85.5217,0157,15.1620
1978-10-31 03:59:00 UTC,2443812.665972,27.6633,-85.5217,0157,15.1100
1978-10-31 04:59:00 UTC,2443812.707639,27.6633,-85.5217,0157,15.1070
1978-10-31 05:59:00 UTC,2443812.749306,27.6633,-85.5217,0157,15.0430
1978-10-31 06:59:00 UTC,2443812.790972,27.6633,-85.5217,0157,14.9880
1978-10-31 07:59:00 UTC,2443812.832639,27.6633,-85.5217,0157,15.0660
1978-10-31 08:59:00 UTC,2443812.874306,27.6633,-85.5217,0157,15.0360
1978-10-31 09:59:00 UTC,2443812.915972,27.6633,-85.5217,0157,14.8610
1978-10-31 10:59:00 UTC,2443812.957639,27.6633,-85.5217,0157,14.7100
1978-10-31 11:59:00 UTC,2443812.999306,27.6633,-85.5217,0157,14.5630
1978-10-31 12:59:00 UTC,2443813.040972,27.6633,-85.5217,0157,14.5150
1978-10-31 13:59:00 UTC,2443813.082639,27.6633,-85.5217,0157,14.5540
1978-10-31 14:59:00 UTC,2443813.124306,27.6633,-85.5217,0157,14.5060
1978-10-31 15:59:00 UTC,2443813.165972,27.6633,-85.5217,0157,14.4000
1978-10-31 16:59:00 UTC,2443813.207639,27.6633,-85.5217,0157,14.3060
1978-10-31 17:59:00 UTC,2443813.249306,27.6633,-85.5217,0157,14.3600
1978-10-31 18:59:00 UTC,2443813.290972,27.6633,-85.5217,0157,14.3170
1978-10-31 19:59:00 UTC,2443813.332639,27.6633,-85.5217,0157,14.1880
1978-10-31 20:59:00 UTC,2443813.374306,27.6633,-85.5217,0157,14.2890
1978-10-31 21:59:00 UTC,2443813.415972,27.6633,-85.5217,0157,14.3480
1978-10-31 22:59:00 UTC,2443813.457639,27.6633,-85.5217,0157,14.2890
1978-10-31 23:59:00 UTC,2443813.499306,27.6633,-85.5217,0157,14.2770
1978-11-01 00:59:00 UTC,2443813.540972,27.6633,-85.5217,0157,14.2100
1978-11-01 01:59:00 UTC,2443813.582639,27.6633,-85.5217,0157,14.1410
1978-11-01 02:59:00 UTC,2443813.624306,27.6633,-85.5217,0157,14.1250
1978-11-01 03:59:00 UTC,2443813.665972,27.6633,-85.5217,0157,14.1360
1978-11-01 04:59:00 UTC,2443813.707639,27.6633,-85.5217,0157,14.1530
1978-11-01 05:59:00 UTC,2443813.749306,27.6633,-85.5217,0157,14.1650
1978-11-01 06:59:00 UTC,2443813.790972,27.6633,-85.5217,0157,14.0980
1978-11-01 07:59:00 UTC,2443813.832639,27.6633,-85.5217,0157,14.0580
1978-11-01 08:59:00 UTC,2443813.874306,27.6633,-85.5217,0157,14.1480
1978-11-01 09:59:00 UTC,2443813.915972,27.6633,-85.5217,0157,14.1890
1978-11-01 10:59:00 UTC,2443813.957639,27.6633,-85.5217,0157,14.1150
1978-11-01 11:59:00 UTC,2443813.999306,27.6633,-85.5217,0157,14.0730
1978-11-01 12:59:00 UTC,2443814.040972,27.6633,-85.5217,0157,14.0250
1978-11-01 13:59:00 UTC,2443814.082639,27.6633,-85.5217,0157,13.9930
1978-11-01 14:59:00 UTC,2443814.124306,27.6633,-85.5217,0157,13.9450
1978-11-01 15:59:00 UTC,2443814.165972,27.6633,-85.5217,0157,13.8860
1978-11-01 16:59:00 UTC,2443814.207639,27.6633,-85.5217,0157,13.8630
1978-11-01 17:59:00 UTC,2443814.249306,27.6633,-85.5217,0157,13.7920
1978-11-01 18:59:00 UTC,2443814.290972,27.6633,-85.5217,0157,13.8790
1978-11-01 19:59:00 UTC,2443814.332639,27.6633,-85.5217,0157,13.9970
1978-11-01 20:59:00 UTC,2443814.374306,27.6633,-85.5217,0157,14.0030
1978-11-01 21:59:00 UTC,2443814.415972,27.6633,-85.5217,0157,14.0410
1978-11-01 22:59:00 UTC,2443814.457639,27.6633,-85.5217,0157,14.1870
1978-11-01 23:59:00 UTC,2443814.499306,27.6633,-85.5217,0157,14.1740
1978-11-02 00:59:00 UTC,2443814.540972,27.6633,-85.5217,0157,14.1260
1978-11-02 01:59:00 UTC,2443814.582639,27.6633,-85.5217,0157,14.2100
1978-11-02 02:59:00 UTC,2443814.624306,27.6633,-85.5217,0157,14.2330
1978-11-02 03:59:00 UTC,2443814.665972,27.6633,-85.5217,0157,14.1550
1978-11-02 04:59:00 UTC,2443814.707639,27.6633,-85.5217,0157,14.1660
1978-11-02 05:59:00 UTC,2443814.749306,27.6633,-85.5217,0157,14.2280
1978-11-02 06:59:00 UTC,2443814.790972,27.6633,-85.5217,0157,14.2050
1978-11-02 07:59:00 UTC,2443814.832639,27.6633,-85.5217,0157,14.2020
1978-11-02 08:59:00 UTC,2443814.874306,27.6633,-85.5217,0157,14.1950
1978-11-02 09:59:00 UTC,2443814.915972,27.6633,-85.5217,0157,14.1730
1978-11-02 10:59:00 UTC,2443814.957639,27.6633,-85.5217,0157,14.1160
1978-11-02 11:59:00 UTC,2443814.999306,27.6633,-85.5217,0157,14.0870
1978-11-02 12:59:00 UTC,2443815.040972,27.6633,-85.5217,0157,14.0760
1978-11-02 13:59:00 UTC,2443815.082639,27.6633,-85.5217,0157,14.1240
1978-11-02 14:59:00 UTC,2443815.124306,27.6633,-85.5217,0157,14.1080
1978-11-02 15:59:00 UTC,2443815.165972,27.6633,-85.5217,0157,14.0240
1978-11-02 16:59:00 UTC,2443815.207639,27.6633,-85.5217,0157,14.1370
1978-11-02 17:59:00 UTC,2443815.249306,27.6633,-85.5217,0157,14.2850
1978-11-02 18:59:00 UTC,2443815.290972,27.6633,-85.5217,0157,14.1060
1978-11-02 19:59:00 UTC,2443815.332639,27.6633,-85.5217,0157,13.9400
1978-11-02 20:59:00 UTC,2443815.374306,27.6633,-85.5217,0157,14.1330
1978-11-02 21:59:00 UTC,2443815.415972,27.6633,-85.5217,0157,14.2240
1978-11-02 22:59:00 UTC,2443815.457639,27.6633,-85.5217,0157,14.1800
1978-11-02 23:59:00 UTC,2443815.499306,27.6633,-85.5217,0157,14.2810
1978-11-03 00:59:00 UTC,2443815.540972,27.6633,-85.5217,0157,14.2870
1978-11-03 01:59:00 UTC,2443815.582639,27.6633,-85.5217,0157,14.3430
1978-11-03 02:59:00 UTC,2443815.624306,27.6633,-85.5217,0157,14.4760
1978-11-03 03:59:00 UTC,2443815.665972,27.6633,-85.5217,0157,14.4930
1978-11-03 04:59:00 UTC,2443815.707639,27.6633,-85.5217,0157,14.5370
1978-11-03 05:59:00 UTC,2443815.749306,27.6633,-85.5217,0157,14.5910
1978-11-03 06:59:00 UTC,2443815.790972,27.6633,-85.5217,0157,14.5680
1978-11-03 07:59:00 UTC,2443815.832639,27.6633,-85.5217,0157,14.5640
1978-11-03 08:59:00 UTC,2443815.874306,27.6633,-85.5217,0157,14.5520
1978-11-03 09:59:00 UTC,2443815.915972,27.6633,-85.5217,0157,14.5410
1978-11-03 10:59:00 UTC,2443815.957639,27.6633,-85.5217,0157,14.5320
1978-11-03 11:59:00 UTC,2443815.999306,27.6633,-85.5217,0157,14.5450
1978-11-03 12:59:00 UTC,2443816.040972,27.6633,-85.5217,0157,14.5420
1978-11-03 13:59:00 UTC,2443816.082639,27.6633,-85.5217,0157,14.4550
1978-11-03 14:59:00 UTC,2443816.124306,27.6633,-85.5217,0157,14.4630
1978-11-03 15:59:00 UTC,2443816.165972,27.6633,-85.5217,0157,14.5810
1978-11-03 16:59:00 UTC,2443816.207639,27.6633,-85.5217,0157,14.6060
1978-11-03 17:59:00 UTC,2443816.249306,27.6633,-85.5217,0157,14.6040
1978-11-03 18:59:00 UTC,2443816.290972,27.6633,-85.5217,0157,14.5890
1978-11-03 19:59:00 UTC,2443816.332639,27.6633,-85.5217,0157,14.5380
1978-11-03 20:59:00 UTC,2443816.374306,27.6633,-85.5217,0157,14.6920
1978-11-03 21:59:00 UTC,2443816.415972,27.6633,-85.5217,0157,14.7270
1978-11-03 22:59:00 UTC,2443816.457639,27.6633,-85.5217,0157,14.8130
1978-11-03 23:59:00 UTC,2443816.499306,27.6633,-85.5217,0157,14.9300
1978-11-04 00:59:00 UTC,2443816.540972,27.6633,-85.5217,0157,14.9220
1978-11-04 01:59:00 UTC,2443816.582639,27.6633,-85.5217,0157,14.9340
1978-11-04 02:59:00 UTC,2443816.624306,27.6633,-85.5217,0157,14.9250
1978-11-04 03:59:00 UTC,2443816.665972,27.6633,-85.5217,0157,14.9090
1978-11-04 04:59:00 UTC,2443816.707639,27.6633,-85.5217,0157,14.8630
1978-11-04 05:59:00 UTC,2443816.749306,27.6633,-85.5217,0157,14.8580
1978-11-04 06:59:00 UTC,2443816.790972,27.6633,-85.5217,0157,14.7670
1978-11-04 07:59:00 UTC,2443816.832639,27.6633,-85.5217,0157,14.7840
1978-11-04 08:59:00 UTC,2443816.874306,27.6633,-85.5217,0157,14.9140
1978-11-04 09:59:00 UTC,2443816.915972,27.6633,-85.5217,0157,14.9190
1978-11-04 10:59:00 UTC,2443816.957639,27.6633,-85.5217,0157,14.9460
1978-11-04 11:59:00 UTC,2443816.999306,27.6633,-85.5217,0157,14.9800
1978-11-04 12:59:00 UTC,2443817.040972,27.6633,-85.5217,0157,15.0760
1978-11-04 13:59:00 UTC,2443817.082639,27.6633,-85.5217,0157,15.2160
1978-11-04 14:59:00 UTC,2443817.124306,27.6633,-85.5217,0157,15.2160
1978-11-04 15:59:00 UTC,2443817.165972,27.6633,-85.5217,0157,15.2050
1978-11-04 16:59:00 UTC,2443817.207639,27.6633,-85.5217,0157,15.1940
1978-11-04 17:59:00 UTC,2443817.249306,27.6633,-85.5217,0157,15.2200
1978-11-04 18:59:00 UTC,2443817.290972,27.6633,-85.5217,0157,15.1290
1978-11-04 19:59:00 UTC,2443817.332639,27.6633,-85.5217,0157,14.9990
1978-11-04 20:59:00 UTC,2443817.374306,27.6633,-85.5217,0157,15.1160
1978-11-04 21:59:00 UTC,2443817.415972,27.6633,-85.5217,0157,15.1890
1978-11-04 22:59:00 UTC,2443817.457639,27.6633,-85.5217,0157,15.1200
1978-11-04 23:59:00 UTC,2443817.499306,27.6633,-85.5217,0157,15.1090
1978-11-05 00:59:00 UTC,2443817.540972,27.6633,-85.5217,0157,15.1350
1978-11-05 01:59:00 UTC,2443817.582639,27.6633,-85.5217,0157,15.2030
1978-11-05 02:59:00 UTC,2443817.624306,27.6633,-85.5217,0157,15.2950
1978-11-05 03:59:00 UTC,2443817.665972,27.6633,-85.5217,0157,15.3410
1978-11-05 04:59:00 UTC,2443817.707639,27.6633,-85.5217,0157,15.4130
1978-11-05 05:59:00 UTC,2443817.749306,27.6633,-85.5217,0157,15.5210
1978-11-05 06:59:00 UTC,2443817.790972,27.6633,-85.5217,0157,15.5400
1978-11-05 07:59:00 UTC,2443817.832639,27.6633,-85.5217,0157,15.4930
1978-11-05 08:59:00 UTC,2443817.874306,27.6633,-85.5217,0157,15.4890
1978-11-05 09:59:00 UTC,2443817.915972,27.6633,-85.5217,0157,15.6240
1978-11-05 10:59:00 UTC,2443817.957639,27.6633,-85.5217,0157,15.5780
1978-11-05 11:59:00 UTC,2443817.999306,27.6633,-85.5217,0157,15.4150
1978-11-05 12:59:00 UTC,2443818.040972,27.6633,-85.5217,0157,15.3040
1978-11-05 13:59:00 UTC,2443818.082639,27.6633,-85.5217,0157,15.2470
1978-11-05 14:59:00 UTC,2443818.124306,27.6633,-85.5217,0157,15.3030
1978-11-05 15:59:00 UTC,2443818.165972,27.6633,-85.5217,0157,15.2380
1978-11-05 16:59:00 UTC,2443818.207639,27.6633,-85.5217,0157,15.1780
1978-11-05 17:59:00 UTC,2443818.249306,27.6633,-85.5217,0157,15.1000
1978-11-05 18:59:00 UTC,2443818.290972,27.6633,-85.5217,0157,15.1330
1978-11-05 19:59:00 UTC,2443818.332639,27.6633,-85.5217,0157,15.2810
1978-11-05 20:59:00 UTC,2443818.374306,27.6633,-85.5217,0157,15.3070
1978-11-05 21:59:00 UTC,2443818.415972,27.6633,-85.5217,0157,15.3800
1978-11-05 22:59:00 UTC,2443818.457639,27.6633,-85.5217,0157,15.3770
1978-11-05 23:59:00 UTC,2443818.499306,27.6633,-85.5217,0157,15.4240
1978-11-06 00:59:00 UTC,2443818.540972,27.6633,-85.5217,0157,15.6510
1978-11-06 01:59:00 UTC,2443818.582639,27.6633,-85.5217,0157,15.6710
1978-11-06 02:59:00 UTC,2443818.624306,27.6633,-85.5217,0157,15.6120
1978-11-06 03:59:00 UTC,2443818.665972,27.6633,-85.5217,0157,15.4250
1978-11-06 04:59:00 UTC,2443818.707639,27.6633,-85.5217,0157,15.2290
1978-11-06 05:59:00 UTC,2443818.749306,27.6633,-85.5217,0157,15.2740
1978-11-06 06:59:00 UTC,2443818.790972,27.6633,-85.5217,0157,15.3660
1978-11-06 07:59:00 UTC,2443818.832639,27.6633,-85.5217,0157,15.4120
1978-11-06 08:59:00 UTC,2443818.874306,27.6633,-85.5217,0157,15.3920
1978-11-06 09:59:00 UTC,2443818.915972,27.6633,-85.5217,0157,15.3770
1978-11-06 10:59:00 UTC,2443818.957639,27.6633,-85.5217,0157,15.5780
1978-11-06 11:59:00 UTC,2443818.999306,27.6633,-85.5217,0157,15.6820
1978-11-06 12:59:00 UTC,2443819.040972,27.6633,-85.5217,0157,15.6240
1978-11-06 13:59:00 UTC,2443819.082639,27.6633,-85.5217,0157,15.6430
1978-11-06 14:59:00 UTC,2443819.124306,27.6633,-85.5217,0157,15.6500
1978-11-06 15:59:00 UTC,2443819.165972,27.6633,-85.5217,0157,15.6640
1978-11-06 16:59:00 UTC,2443819.207639,27.6633,-85.5217,0157,15.7670
1978-11-06 17:59:00 UTC,2443819.249306,27.6633,-85.5217,0157,15.7100
1978-11-06 18:59:00 UTC,2443819.290972,27.6633,-85.5217,0157,15.5400
1978-11-06 19:59:00 UTC,2443819.332639,27.6633,-85.5217,0157,15.5580
1978-11-06 20:59:00 UTC,2443819.374306,27.6633,-85.5217,0157,15.7440
1978-11-06 21:59:00 UTC,2443819.415972,27.6633,-85.5217,0157,15.7870
1978-11-06 22:59:00 UTC,2443819.457639,27.6633,-85.5217,0157,15.7780
1978-11-06 23:59:00 UTC,2443819.499306,27.6633,-85.5217,0157,15.8500
1978-11-07 00:59:00 UTC,2443819.540972,27.6633,-85.5217,0157,15.8820
1978-11-07 01:59:00 UTC,2443819.582639,27.6633,-85.5217,0157,15.8520
1978-11-07 02:59:00 UTC,2443819.624306,27.6633,-85.5217,0157,15.7940
1978-11-07 03:59:00 UTC,2443819.665972,27.6633,-85.5217,0157,15.7590
1978-11-07 04:59:00 UTC,2443819.707639,27.6633,-85.5217,0157,15.7450
1978-11-07 05:59:00 UTC,2443819.749306,27.6633,-85.5217,0157,15.6090
1978-11-07 06:59:00 UTC,2443819.790972,27.6633,-85.5217,0157,15.4930
1978-11-07 07:59:00 UTC,2443819.832639,27.6633,-85.5217,0157,15.4440
1978-11-07 08:59:00 UTC,2443819.874306,27.6633,-85.5217,0157,15.4850
1978-11-07 09:59:00 UTC,2443819.915972,27.6633,-85.5217,0157,15.6160
1978-11-07 10:59:00 UTC,2443819.957639,27.6633,-85.5217,0157,15.6690
1978-11-07 11:59:00 UTC,2443819.999306,27.6633,-85.5217,0157,15.6990
1978-11-07 12:59:00 UTC,2443820.040972,27.6633,-85.5217,0157,15.7730
1978-11-07 13:59:00 UTC,2443820.082639,27.6633,-85.5217,0157,15.8090
1978-11-07 14:59:00 UTC,2443820.124306,27.6633,-85.5217,0157,15.7850
1978-11-07 15:59:00 UTC,2443820.165972,27.6633,-85.5217,0157,15.8570
1978-11-07 16:59:00 UTC,2443820.207639,27.6633,-85.5217,0157,15.9780
1978-11-07 17:59:00 UTC,2443820.249306,27.6633,-85.5217,0157,15.9940
1978-11-07 18:59:00 UTC,2443820.290972,27.6633,-85.5217,0157,15.9310
1978-11-07 19:59:00 UTC,2443820.332639,27.6633,-85.5217,0157,15.7820
1978-11-07 20:59:00 UTC,2443820.374306,27.6633,-85.5217,0157,15.7960
1978-11-07 21:59:00 UTC,2443820.415972,27.6633,-85.5217,0157,15.7100
1978-11-07 22:59:00 UTC,2443820.457639,27.6633,-85.5217,0157,15.6040
1978-11-07 23:59:00 UTC,2443820.499306,27.6633,-85.5217,0157,15.6520
1978-11-08 00:59:00 UTC,2443820.540972,27.6633,-85.5217,0157,15.6760
1978-11-08 01:59:00 UTC,2443820.582639,27.6633,-85.5217,0157,15.8270
1978-11-08 02:59:00 UTC,2443820.624306,27.6633,-85.5217,0157,15.8910
1978-11-08 03:59:00 UTC,2443820.665972,27.6633,-85.5217,0157,15.9100
1978-11-08 04:59:00 UTC,2443820.707639,27.6633,-85.5217,0157,15.8850
1978-11-08 05:59:00 UTC,2443820.749306,27.6633,-85.5217,0157,15.7610
1978-11-08 06:59:00 UTC,2443820.790972,27.6633,-85.5217,0157,15.7320
1978-11-08 07:59:00 UTC,2443820.832639,27.6633,-85.5217,0157,15.5780
1978-11-08 08:59:00 UTC,2443820.874306,27.6633,-85.5217,0157,15.4620
1978-11-08 09:59:00 UTC,2443820.915972,27.6633,-85.5217,0157,15.4720
1978-11-08 10:59:00 UTC,2443820.957639,27.6633,-85.5217,0157,15.4840
1978-11-08 11:59:00 UTC,2443820.999306,27.6633,-85.5217,0157,15.6020
1978-11-08 12:59:00 UTC,2443821.040972,27.6633,-85.5217,0157,15.6020
1978-11-08 13:59:00 UTC,2443821.082639,27.6633,-85.5217,0157,15.5610
1978-11-08 14:59:00 UTC,2443821.124306,27.6633,-85.5217,0157,15.6060
1978-11-08 15:59:00 UTC,2443821.165972,27.6633,-85.5217,0157,15.6800
1978-11-08 16:59:00 UTC,2443821.207639,27.6633,-85.5217,0157,15.7010
1978-11-08 17:59:00 UTC,2443821.249306,27.6633,-85.5217,0157,15.6290
1978-11-08 18:59:00 UTC,2443821.290972,27.6633,-85.5217,0157,15.6540
1978-11-08 19:59:00 UTC,2443821.332639,27.6633,-85.5217,0157,15.7780
1978-11-08 20:59:00 UTC,2443821.374306,27.6633,-85.5217,0157,15.8560
1978-11-08 21:59:00 UTC,2443821.415972,27.6633,-85.5217,0157,15.9910
1978-11-08 22:59:00 UTC,2443821.457639,27.6633,-85.5217,0157,16.0030
1978-11-08 23:59:00 UTC,2443821.499306,27.6633,-85.5217,0157,15.9640
1978-11-09 00:59:00 UTC,2443821.540972,27.6633,-85.5217,0157,16.0710
1978-11-09 01:59:00 UTC,2443821.582639,27.6633,-85.5217,0157,16.1870
1978-11-09 02:59:00 UTC,2443821.624306,27.6633,-85.5217,0157,16.1550
1978-11-09 03:59:00 UTC,2443821.665972,27.6633,-85.5217,0157,16.0550
1978-11-09 04:59:00 UTC,2443821.707639,27.6633,-85.5217,0157,15.9750
1978-11-09 05:59:00 UTC,2443821.749306,27.6633,-85.5217,0157,15.8800
1978-11-09 06:59:00 UTC,2443821.790972,27.6633,-85.5217,0157,15.8700
1978-11-09 07:59:00 UTC,2443821.832639,27.6633,-85.5217,0157,15.8660
1978-11-09 08:59:00 UTC,2443821.874306,27.6633,-85.5217,0157,15.8620
1978-11-09 09:59:00 UTC,2443821.915972,27.6633,-85.5217,0157,15.8280
1978-11-09 10:59:00 UTC,2443821.957639,27.6633,-85.5217,0157,15.7890
1978-11-09 11:59:00 UTC,2443821.999306,27.6633,-85.5217,0157,15.8030
1978-11-09 12:59:00 UTC,2443822.040972,27.6633,-85.5217,0157,15.7600
1978-11-09 13:59:00 UTC,2443822.082639,27.6633,-85.5217,0157,15.5850
1978-11-09 14:59:00 UTC,2443822.124306,27.6633,-85.5217,0157,15.3860
1978-11-09 15:59:00 UTC,2443822.165972,27.6633,-85.5217,0157,15.5490
1978-11-09 16:59:00 UTC,2443822.207639,27.6633,-85.5217,0157,15.8850
1978-11-09 17:59:00 UTC,2443822.249306,27.6633,-85.5217,0157,15.9460
1978-11-09 18:59:00 UTC,2443822.290972,27.6633,-85.5217,0157,15.8780
1978-11-09 19:59:00 UTC,2443822.332639,27.6633,-85.5217,0157,15.8470
1978-11-09 20:59:00 UTC,2443822.374306,27.6633,-85.5217,0157,15.8450
1978-11-09 21:59:00 UTC,2443822.415972,27.6633,-85.5217,0157,15.7150
1978-11-09 22:59:00 UTC,2443822.457639,27.6633,-85.5217,0157,15.7550
1978-11-09 23:59:00 UTC,2443822.499306,27.6633,-85.5217,0157,15.9800
1978-11-10 00:59:00 UTC,2443822.540972,27.6633,-85.5217,0157,16.0080
1978-11-10 01:59:00 UTC,2443822.582639,27.6633,-85.5217,0157,15.9700
1978-11-10 02:59:00 UTC,2443822.624306,27.6633,-85.5217,0157,15.9740
1978-11-10 03:59:00 UTC,2443822.665972,27.6633,-85.5217,0157,15.9990
1978-11-10 04:59:00 UTC,2443822.707639,27.6633,-85.5217,0157,15.9820
1978-11-10 05:59:00 UTC,2443822.749306,27.6633,-85.5217,0157,15.8880
1978-11-10 06:59:00 UTC,2443822.790972,27.6633,-85.5217,0157,15.8400
1978-11-10 07:59:00 UTC,2443822.832639,27.6633,-85.5217,0157,15.8490